EHI
0 0 0 0 0 0 0 0 0 0 0 0 0 0 0 0 0 0 0 0 1 4 10 17 19 16 12 11 11 8 6 6 5 4 4 3 2 1 0 0 0 0 1 1 3 3 2 1 2
0 0 0 0 0 0 0 0 0 0 0 0 0 0 0 0 0 0 0 0 2 6 10 15 19 19 15 12 10 9 8 7 5 4 3 3 3 1 0 0 0 0 1 1 2 2 1 1 2
0 0 0 0 0 0 0 0 0 0 0 0 0 0 0 0 0 0 0 2 5 8 11 15 22 22 17 12 10 10 10 8 6 4 3 3 3 2 1 0 0 0 0 0 1 2 2 2 3
0 0 0 0 0 0 0 0 0 0 0 0 0 0 1 1 1 1 2 4 8 11 12 17 23 23 17 12 10 11 11 9 6 4 3 3 3 2 1 1 0 0 0 0 1 2 3 3 3
0 0 0 0 0 0 0 0 0 0 0 0 0 1 2 2 2 4 6 7 9 10 11 14 19 20 17 13 10 10 12 10 7 4 3 3 3 2 1 1 0 0 0 0 1 2 3 3 3
0 0 0 0 0 0 0 0 0 0 0 0 0 2 4 3 4 6 8 9 9 8 8 9 12 15 15 12 9 10 12 12 9 5 3 3 2 1 0 0 0 0 0 0 0 1 3 3 3
0 0 0 0 0 0 0 0 0 0 0 0 1 3 4 4 5 6 8 9 8 6 6 6 6 8 10 8 6 7 10 11 10 6 3 2 2 1 0 0 0 0 0 0 0 1 2 3 3
0 0 0 0 0 0 0 0 0 0 0 0 0 2 3 4 5 7 8 8 6 5 5 4 3 4 5 3 2 3 5 7 8 5 2 1 1 0 0 0 0 0 0 0 0 0 1 3 3
0 0 0 0 0 0 0 0 1 1 0 0 0 2 5 7 8 8 8 7 5 4 4 3 2 2 3 2 1 0 1 4 5 4 1 0 0 0 0 0 0 0 0 0 0 0 1 2 2
0 0 0 0 0 0 0 0 1 1 0 0 1 3 6 9 9 8 7 5 3 3 3 2 1 1 2 2 1 0 0 2 3 2 0 0 0 0 0 0 0 0 0 0 0 0 0 1 1
0 0 0 0 0 0 0 0 0 0 0 0 2 3 5 7 7 5 3 2 1 2 3 2 1 2 2 1 1 0 0 1 2 1 0 0 0 0 0 0 0 0 0 0 0 0 0 0 0
0 0 0 0 0 0 0 1 1 1 0 0 2 4 6 6 5 3 1 0 1 1 2 2 1 2 2 1 0 0 0 0 0 0 0 0 0 0 0 0 0 0 0 0 0 0 0 0 0
0 0 0 0 0 0 0 1 2 1 0 1 2 4 7 7 5 2 0 0 1 2 3 3 2 2 3 2 1 1 0 0 0 0 0 0 0 0 0 0 0 0 0 0 0 0 0 0 0
0 0 0 0 0 0 0 1 2 1 0 1 2 4 7 9 7 3 1 1 2 3 4 4 3 2 4 3 2 2 1 0 0 0 0 0 0 0 0 0 0 1 1 0 0 0 0 0 0
0 0 0 0 0 0 0 0 1 1 0 1 2 4 7 9 8 5 1 1 2 3 4 4 4 3 3 3 3 2 1 0 0 0 0 0 0 0 0 0 1 2 2 1 0 0 0 0 0
0 0 0 0 0 0 0 0 1 1 1 1 2 3 5 8 8 5 2 1 2 3 3 4 3 3 1 1 2 2 1 0 0 0 0 0 0 0 0 0 1 2 2 1 0 0 0 0 0
0 0 0 0 0 0 0 0 1 2 1 1 1 2 3 5 7 6 2 0 1 2 3 3 3 2 1 1 1 1 0 0 0 0 0 0 0 0 0 0 0 1 1 0 0 0 0 0 0
0 0 0 0 0 0 0 0 1 2 1 0 0 2 3 4 6 5 2 0 0 1 2 2 2 1 1 2 2 1 0 0 0 0 0 0 0 0 0 0 0 0 0 0 0 0 0 0 0
0 0 0 0 0 0 0 0 1 1 1 0 0 1 2 4 5 4 2 1 0 0 1 1 1 0 1 2 2 1 0 0 0 0 0 0 0 0 0 0 0 0 0 0 0 0 0 0 0
0 0 0 0 0 0 0 0 0 0 0 0 0 0 1 3 4 3 3 2 1 1 1 0 0 0 0 1 1 0 0 0 0 0 0 0 0 0 0 0 0 0 0 0 0 0 0 0 0
0 0 0 0 0 0 0 0 0 0 0 0 0 0 0 2 3 3 2 2 1 1 1 0 0 0 0 0 0 0 0 0 0 0 0 0 0 0 0 0 0 0 0 0 0 0 0 0 0
0 0 0 0 0 0 0 0 0 0 0 0 0 0 0 1 2 1 1 1 1 1 1 0 0 0 0 0 0 0 0 0 0 0 0 0 0 0 0 0 0 0 0 0 0 0 0 0 0
0 0 0 0 0 0 0 0 0 0 0 0 0 0 0 0 0 0 0 0 1 2 1 0 0 0 0 0 0 0 0 0 0 0 0 0 0 0 0 0 0 0 0 0 0 0 0 0 0
0 0 0 0 0 0 0 0 0 0 0 0 0 0 0 0 0 0 0 0 1 2 2 1 0 0 0 0 0 0 0 0 0 0 0 0 0 0 0 0 0 0 0 0 0 0 0 0 0
0 0 0 0 0 0 0 0 0 0 0 0 0 0 0 0 0 0 0 0 1 3 3 1 0 0 0 0 0 0 0 0 0 0 0 0 0 0 0 0 0 0 0 0 0 0 0 0 0
0 0 0 0 0 0 0 0 0 0 0 0 0 0 0 0 0 0 0 0 2 4 3 1 0 0 0 0 0 0 0 0 0 0 0 0 0 0 0 0 0 0 0 0 0 0 0 0 0
0 0 0 0 0 0 0 0 0 0 0 0 0 0 0 0 0 0 0 0 2 4 4 1 0 0 0 0 0 0 0 0 0 0 0 0 0 0 0 0 0 0 0 0 0 0 0 0 0
0 0 0 0 0 0 0 0 0 0 0 0 0 0 0 0 0 0 0 0 0 2 2 1 0 0 0 0 0 0 0 0 0 0 0 0 0 0 0 0 0 0 0 0 0 0 0 0 0
0 0 0 0 0 0 0 0 0 0 0 0 0 0 0 0 0 0 0 0 0 0 0 0 0 0 0 0 0 0 0 0 0 0 0 0 0 0 0 0 0 0 0 0 0 0 0 0 0
0 0 0 0 0 0 0 0 0 0 0 0 0 0 0 0 0 0 0 0 0 0 0 0 0 0 0 0 0 0 0 0 0 0 0 0 0 0 0 0 0 0 0 0 0 0 0 0 0
Wind_Speed
8 4 2 4 6 4 3 4 2 1 1 1 1 3 4 4 4 2 1 3 4 4 4 7 7 8 9 9 9 9 10 10 10 10 11 11 11 11 11 12 12 12 12 12 13 12 13 13 13
3 2 4 5 4 2 4 3 2 2 2 0 1 2 3 1 1 2 1 1 4 5 5 6 7 8 9 9 9 9 10 10 10 10 10 10 11 11 11 11 11 11 11 11 12 12 12 12 12
3 3 4 4 3 6 4 2 3 1 1 1 2 2 2 1 1 1 1 3 4 4 4 6 8 8 8 9 9 9 9 10 9 9 9 10 10 10 10 10 10 10 10 11 11 11 11 11 12
3 4 4 3 5 5 3 1 1 0 2 2 2 2 1 2 0 1 3 5 5 4 4 6 8 8 8 8 9 8 9 9 9 9 8 9 9 9 10 9 9 9 9 10 10 10 11 11 11
4 3 3 2 5 3 1 2 0 1 1 1 2 2 1 2 2 3 5 6 6 4 3 5 7 8 8 8 8 8 8 8 8 8 8 8 9 8 9 9 9 8 9 9 9 9 10 10 10
3 3 3 5 5 2 1 1 1 1 1 1 2 2 1 1 3 3 4 5 4 5 4 4 6 7 7 7 7 7 7 7 8 8 8 8 8 8 8 8 8 8 8 8 8 8 9 9 10
3 3 4 5 4 2 1 1 1 1 0 1 1 2 1 0 2 4 4 5 4 4 4 3 3 4 5 5 5 6 6 6 6 7 7 7 7 7 7 7 7 7 7 7 7 8 8 9 9
3 3 2 3 4 3 1 0 0 1 1 1 1 3 2 2 3 4 4 5 4 4 3 3 3 3 3 3 4 5 5 5 5 6 6 6 6 5 5 5 5 6 6 6 6 7 8 8 8
3 2 4 4 4 2 0 1 2 1 1 1 1 1 0 3 5 5 4 4 4 3 2 3 3 2 2 2 3 3 4 4 5 5 5 5 3 3 3 3 4 5 5 5 6 7 7 8 7
3 3 5 2 1 1 1 0 0 2 2 2 2 3 3 4 6 6 5 4 3 2 2 2 2 2 2 2 2 1 1 2 2 3 3 2 2 1 2 3 4 4 4 4 5 6 6 5 3
2 3 2 1 2 1 0 1 0 3 0 1 2 2 3 3 4 4 4 3 3 3 2 1 2 1 2 1 1 1 1 1 2 3 3 2 2 1 1 2 2 2 3 2 3 3 2 2 2
2 1 1 1 2 2 1 0 1 1 3 1 2 3 4 3 3 3 3 2 1 1 1 1 1 2 1 1 1 1 1 1 1 2 3 3 2 1 1 1 1 1 1 2 2 2 3 3 3
2 1 1 1 2 1 1 1 1 2 3 1 1 2 3 3 3 2 2 2 2 1 1 1 1 1 1 1 1 1 1 1 2 2 2 3 3 2 1 1 1 1 1 2 2 2 3 3 2
2 1 0 1 2 1 1 2 0 3 1 2 1 2 3 2 1 1 0 1 1 2 2 1 1 1 1 1 1 1 1 1 2 2 2 3 2 2 2 1 2 1 1 2 2 3 3 2 2
1 2 2 2 1 1 1 2 1 2 1 1 0 1 2 1 0 1 1 1 2 1 1 1 1 1 1 1 1 1 1 1 2 2 3 3 3 3 2 2 2 2 2 2 2 3 2 2 2
1 2 0 2 1 1 2 3 2 0 3 1 0 0 1 1 1 2 2 1 1 0 0 0 0 0 1 1 1 1 1 1 1 2 2 3 3 3 3 2 2 2 2 2 3 3 2 2 1
2 1 2 3 1 0 2 4 3 1 2 0 1 1 1 2 3 3 2 1 1 1 1 0 0 0 1 1 1 1 1 1 1 2 2 3 4 4 3 2 2 3 3 2 3 2 2 2 2
2 3 2 3 3 1 1 4 5 4 1 2 2 2 1 1 3 3 2 1 1 0 0 0 1 0 0 0 0 0 0 0 1 1 2 3 3 4 4 2 2 3 3 2 2 3 2 2 2
2 3 2 4 3 1 3 4 6 4 1 2 2 2 2 2 2 2 2 2 1 1 1 0 0 1 0 1 1 1 1 1 1 1 2 3 3 4 4 3 3 3 3 3 4 3 3 2 2
2 2 2 3 3 1 2 6 5 3 3 3 3 2 1 2 3 3 3 3 2 1 1 1 1 1 1 1 1 1 1 1 2 2 2 3 4 4 4 4 4 4 4 4 3 3 2 1 2
2 4 3 2 4 3 2 5 3 1 1 0 1 1 0 1 3 3 3 2 2 2 1 2 2 2 2 1 0 1 1 1 1 1 2 2 3 4 4 5 4 5 5 5 5 5 5 3 2
3 3 3 2 1 2 1 4 6 2 1 1 1 1 1 2 2 2 3 3 3 3 3 2 2 2 2 1 1 1 1 2 3 2 2 3 3 4 4 5 5 5 5 5 6 5 3 5 4
2 0 1 1 1 1 1 2 7 1 3 3 3 3 2 2 2 2 3 3 3 3 3 2 2 2 2 2 2 2 2 2 2 2 2 3 3 4 5 5 5 5 5 6 6 5 4 4 4
2 2 3 2 2 2 3 3 7 3 4 3 3 2 2 2 2 3 3 3 3 3 3 3 2 3 3 2 2 3 3 3 2 3 3 3 2 3 4 5 5 6 5 6 6 6 6 5 5
2 4 3 3 2 5 1 3 8 4 4 4 4 3 3 2 2 3 4 4 4 5 4 4 3 4 3 3 3 4 4 4 5 4 4 3 3 3 4 5 5 5 6 6 5 6 6 6 6
1 4 4 3 3 4 2 6 7 3 3 1 1 1 2 2 3 3 3 3 4 4 4 4 4 4 4 4 4 4 4 3 4 5 4 4 4 4 5 5 6 6 6 6 6 5 6 6 6
3 2 2 4 1 2 5 6 7 1 2 1 0 1 3 3 3 3 3 3 4 4 5 4 4 5 5 4 4 5 4 4 4 5 4 4 4 4 5 5 6 6 6 7 6 5 6 6 6
2 4 3 3 2 3 5 5 5 3 4 2 1 3 4 4 4 4 4 4 4 4 5 5 4 5 5 5 4 4 4 4 4 4 5 5 5 5 5 5 6 6 6 7 7 5 6 6 5
2 2 3 3 2 3 4 7 4 5 4 3 3 3 4 5 5 5 5 4 4 4 5 5 5 5 5 5 5 5 5 4 4 4 5 5 4 5 5 5 6 6 6 6 6 7 7 7 6
2 3 4 3 3 3 3 8 3 2 2 1 3 4 5 5 5 4 4 4 4 5 5 6 5 5 5 5 5 5 4 4 4 4 5 5 5 5 5 5 6 6 6 6 7 7 7 7 7
Wind_Direction
339 346 46 55 60 59 225 239 228 247 228 244 179 140 144 142 151 182 315 130 120 143 155 146 134 129 126 120 114 118 119 118 116 113 111 109 106 104 101 99 98 96 94 94 94 92 91 91 90
336 355 51 62 102 180 247 233 222 222 211 122 55 76 90 76 65 94 101 143 132 143 144 141 129 128 127 123 118 116 116 117 117 116 115 114 110 107 103 99 99 98 95 95 95 94 92 92 91
338 37 81 88 150 190 215 209 209 276 322 66 62 56 100 95 101 150 195 148 121 130 133 138 129 129 129 125 121 117 120 118 116 117 119 118 115 111 105 102 99 99 99 99 97 96 95 95 95
43 48 62 102 208 216 214 228 210 311 16 36 89 56 45 25 86 177 147 131 118 114 122 138 132 132 132 129 125 122 123 123 121 118 119 120 117 115 110 107 104 102 104 102 100 102 100 99 99
52 80 100 207 230 235 236 273 225 75 18 14 95 92 358 354 60 109 124 127 121 112 113 138 136 135 133 132 131 128 125 128 129 126 120 119 119 117 113 110 109 107 106 106 105 105 105 105 105
57 77 143 212 227 243 255 279 68 58 17 15 86 89 342 39 73 101 114 118 114 116 108 120 138 136 133 135 137 133 131 130 135 131 126 120 120 119 118 116 113 112 110 111 112 108 110 108 108
112 124 192 198 208 229 235 242 149 164 107 255 142 111 314 53 92 109 112 109 107 109 105 106 118 130 134 132 136 136 135 133 133 132 125 119 116 121 121 121 120 115 116 113 115 112 112 110 111
125 118 188 210 201 222 253 9 152 152 223 285 126 138 200 193 129 109 107 105 98 89 93 97 96 100 115 134 134 139 143 139 130 125 121 115 114 120 118 119 122 121 119 118 117 117 116 111 110
97 101 207 212 199 206 254 61 345 359 97 25 29 133 195 144 126 113 105 95 88 76 66 78 77 86 92 114 124 127 145 140 128 121 116 113 105 109 117 121 122 124 123 125 121 119 117 110 108
103 182 218 221 203 182 278 148 287 41 42 31 24 30 74 114 128 128 129 133 135 133 97 72 74 83 91 95 97 105 118 127 123 124 122 115 108 108 119 123 121 120 121 125 122 116 116 106 106
140 193 218 275 283 223 231 320 18 126 77 206 168 136 118 116 130 141 150 156 168 166 142 117 103 98 97 87 101 97 108 115 116 123 123 119 112 109 111 119 111 103 101 99 101 99 105 113 118
149 231 210 290 310 315 234 166 51 162 226 212 160 144 140 138 151 169 169 168 173 168 168 153 142 118 107 107 116 124 135 143 139 135 133 132 129 129 135 137 134 122 116 118 111 113 117 119 121
188 226 332 321 335 333 30 242 207 274 282 354 85 116 151 165 184 190 186 170 163 176 196 226 176 152 143 130 147 125 143 169 161 150 149 144 150 158 155 157 148 145 139 143 140 131 130 127 126
187 135 24 329 333 335 114 295 152 277 328 69 94 157 170 162 187 175 133 204 202 208 214 224 205 203 181 162 159 175 168 172 168 163 165 156 152 158 163 174 166 166 161 154 151 148 141 137 136
147 103 7 327 293 259 108 343 230 250 119 95 228 191 160 149 127 226 240 224 222 226 231 227 216 209 195 201 190 175 181 181 187 182 169 166 165 166 168 182 189 183 169 150 134 126 121 127 132
93 104 270 302 1 267 137 239 259 251 111 101 274 228 218 261 274 271 269 251 234 185 245 266 272 237 216 221 209 201 194 196 197 194 180 181 179 175 173 178 206 180 164 156 151 142 130 132 132
62 161 236 294 324 309 161 233 274 333 112 153 264 258 280 317 316 307 290 270 243 207 210 293 348 213 240 246 210 205 204 209 212 199 193 194 188 181 179 184 193 167 161 162 163 148 146 151 144
191 182 225 263 307 63 224 256 283 288 182 223 250 256 257 304 295 304 306 314 290 196 164 232 311 264 231 239 259 211 199 236 247 230 208 198 194 184 178 178 185 162 156 162 161 152 142 147 143
152 169 226 264 283 285 238 263 277 285 259 245 242 236 246 276 300 326 339 350 11 44 43 336 278 283 184 199 221 233 243 242 238 243 233 206 200 188 181 180 183 173 172 175 162 152 143 144 127
157 186 259 295 328 321 264 281 279 265 242 222 210 214 231 341 341 347 2 7 15 13 356 339 312 271 239 234 229 235 248 242 239 237 235 220 207 197 189 181 192 185 174 166 168 149 145 156 156
196 201 221 262 335 2 330 301 277 266 227 161 179 161 111 320 310 321 346 348 352 353 329 323 310 300 283 281 19 19 4 336 293 276 263 243 216 205 197 192 195 193 185 183 182 175 168 175 196
234 212 182 202 51 317 28 284 283 274 277 253 274 296 298 293 293 311 336 334 331 318 317 306 297 294 289 258 209 197 243 256 254 254 259 262 233 214 203 197 200 198 192 190 193 190 184 170 184
209 177 136 184 143 315 309 228 280 285 243 243 239 235 251 276 278 300 315 307 313 321 317 309 311 302 298 271 235 227 252 263 277 275 258 256 245 224 210 202 202 204 198 198 197 194 192 189 188
150 70 48 45 77 264 225 197 271 235 232 249 243 247 257 277 299 309 321 326 325 334 334 330 315 308 308 299 265 240 245 254 265 269 259 255 251 233 219 211 208 207 202 202 203 198 196 199 196
90 100 38 357 351 251 200 214 251 251 243 227 233 252 268 271 307 325 333 330 329 334 333 332 325 309 307 297 285 258 249 243 240 245 244 250 248 242 225 216 214 208 205 203 199 200 201 199 197
166 139 159 200 232 282 287 240 257 264 273 242 224 252 286 304 306 308 308 308 313 318 324 326 322 313 307 295 285 275 260 253 253 251 248 243 244 239 228 219 221 211 205 202 199 203 205 201 201
133 143 152 126 92 286 270 285 298 281 317 337 23 349 308 295 301 302 306 310 313 316 312 308 307 307 305 299 293 278 266 256 256 257 255 252 252 248 228 225 226 214 207 201 197 206 206 202 205
120 139 107 119 151 273 289 273 259 257 263 274 310 302 299 305 313 313 310 305 306 305 306 303 292 291 294 293 285 289 274 263 260 262 260 259 260 252 238 231 227 219 212 204 201 205 204 200 204
122 113 112 114 154 175 270 273 241 217 212 219 253 276 290 302 302 303 305 300 301 309 308 302 300 303 301 293 285 280 278 270 267 264 263 264 267 257 244 237 225 220 213 207 204 207 199 201 204
165 169 152 159 220 193 210 270 294 219 210 223 277 293 300 297 297 301 302 304 310 312 311 310 303 299 296 290 283 277 276 276 270 270 270 268 266 263 252 241 230 217 211 204 205 208 201 202 203